Location: Az?znagar
(16.8373°N, 80.5091°E)
Time: 23:39:59
(UTC+00:00)

Nadezhda 4 Rocket - Pass Details

Date: 06 July 2022
Orbit: 949 x 992 km, 82.9° (Epoch: 09 August)

Event Time Altitude Azimuth Distance (km) Brightness Sun altitude
Rises 22:24:51 0° 150° (SSE) 3,660 7.0 -22.9°
Reaches altitude 10° 22:28:05 10° 133° (SE) 2,706 6.5 -22.3°
Maximum altitude 22:32:22 20° 89° (E) 2,076 6.4 -21.4°
Drops below altitude 10° 22:36:37 10° 45° (NE) 2,689 7.4 -20.6°
Sets 22:39:47 0° 29° (NNE) 3,629 8.0 -19.9°
